Regional Weather Roundup
Issued by NWS

Home | Current Version | Previous Version | Text Only | Print | Product List | Glossary On
Versions: 1 2 3 4 5 6 7 8 9 10 11 12 13 14 15 16 17 18 19 20 21 22 23 24 25 26 27 28 29 30 31 32 33 34 35 36 37 38 39 40 41 42 43 44 45 46 47 48 49 50
000
ASUS46 KPQR 042010
RWROR

OREGON REGIONAL WEATHER ROUNDUP
NATIONAL WEATHER SERVICE PORTLAND OR
100 PM PDT SAT JUL 04 2015

NOTE: "FAIR" INDICATES FEW OR NO CLOUDS BELOW 12,000 FEET WITH
NO SIGNIFICANT WEATHER AND/OR OBSTRUCTIONS TO VISIBILITY.

ORZ001>013-042100-
NORTHWEST OREGON


CITY           SKY/WX    TMP DP  RH WIND       PRES   REMARKS
ASTORIA        SUNNY     70  58  65 W10       29.87S
NEWPORT        SUNNY     61  55  82 NW7       29.92S
PORTLAND       MOSUNNY   84  54  35 VRB3      29.83F
VANCOUVER WA   SUNNY     84  54  35 VRB5      29.82F
SCAPPOOSE      SUNNY     83  57  41 VRB3      29.82F
HILLSBORO      SUNNY     84  51  31 VRB3      29.82F
AURORA         SUNNY     85  53  33 VRB5      29.83F
MCMINNVILLE    SUNNY     86  51  29 VRB5      29.83F
SALEM          SUNNY     87  50  27 NW6       29.82F
CORVALLIS      MOSUNNY   88  54  31 CALM      29.85F
EUGENE         CLOUDY    84  52  33 S6        29.85F
$$

ORZ021-028-042100-
SOUTHWEST OREGON


CITY           SKY/WX    TMP DP  RH WIND       PRES   REMARKS
NORTH BEND     CLOUDY    61  55  82 NW7       29.90F
BROOKINGS      SUNNY     65  60  83 SW3       29.88F
ROSEBURG       CLOUDY    84  54  35 VRB5      29.84F
SEXTON SUMMIT  PTSUNNY   80  52  37 N5        30.00F
MEDFORD        MOSUNNY   94  52  24 VRB5      29.82F HX  91
$$

ORZ014>016-041-042100-
COLUMBIA GORGE


CITY           SKY/WX    TMP DP  RH WIND       PRES   REMARKS
TROUTDALE      SUNNY     84  52  33 VRB6      29.81F
THE DALLES     SUNNY     95  51  22 NW22G28   29.71F HX  92
$$

ORZ029>031-041-044-049-050-061>064-502-503-505>511-042100-
EASTERN OREGON


CITY           SKY/WX    TMP DP  RH WIND       PRES   REMARKS
REDMOND        PTSUNNY   89  40  17 VRB3      29.90F
BEND             N/A    N/A N/A N/A MISG        N/A
PRINEVILLE     PTSUNNY   90  37  15 W12       29.91F
KLAMATH FALLS  PTSUNNY   88  47  24 VRB3      29.98F
LAKEVIEW       MOSUNNY   90  48  24 S3        30.01F
HERMISTON      MOSUNNY   97  48  18 W12G17    29.72F HX  93
PENDLETON      MOSUNNY   96  45  17 NW13      29.76F HX  92
JOHN DAY       PTSUNNY   92  36  14 W8        29.93F
MEACHAM        MOSUNNY   88  38  17 VRB3      29.93F
LA GRANDE      PTSUNNY   91  45  19 NE5       29.85F
BAKER CITY     MOSUNNY   92  38  15 W9        29.90F
BURNS          PTSUNNY   91  30  11 VRB3      29.96F
ROME             N/A     97  32  10 VRB6      29.92F HX  91
ONTARIO        PTSUNNY   98  46  17 E7        29.79F HX  94
$$


USA.gov is the U.S. government's official web portal to all federal, state and local government web resources and services.